Temp
5 5 5 5 5 5 5 5 5 5 5 5 5 6 6 6 6 6 6 6 6 7 7 7 6 6 6 6 6 6 6 6 6 6 6 6 6 6 6 5 5 5
5 5 5 5 5 5 5 5 5 5 5 5 5 6 6 6 6 6 6 6 6 6 7 7 6 6 6 6 6 6 6 6 6 6 6 6 6 6 6 5 5 5
5 5 5 5 5 5 5 5 5 5 5 5 5 5 6 6 6 6 6 6 6 6 6 6 6 6 6 6 6 6 6 6 6 6 6 6 6 6 6 5 5 5
5 5 5 5 5 5 5 5 5 5 5 5 5 5 5 6 6 6 6 6 6 6 6 6 6 6 6 6 6 6 6 6 6 6 6 6 6 6 5 5 5 5
5 5 5 5 5 5 5 5 5 5 5 5 5 5 5 5 6 6 6 6 6 6 6 6 6 6 6 6 6 6 6 6 6 6 6 6 6 5 5 5 5 5
5 5 5 5 5 5 5 5 4 4 5 5 5 5 6 6 6 6 6 6 6 6 6 6 6 6 6 6 6 6 6 6 6 6 6 6 6 5 5 5 5 5
5 5 5 5 4 4 5 5 4 5 5 5 5 6 6 6 6 6 6 6 6 6 6 6 6 6 6 6 6 6 6 6 6 6 6 6 6 5 5 5 5 5
5 5 5 5 4 4 4 4 4 5 5 5 5 6 6 6 6 6 6 6 6 6 6 6 6 6 6 6 6 6 6 6 6 6 6 6 5 5 5 4 4 4
5 5 5 4 4 4 4 4 4 4 5 5 6 6 6 6 6 6 5 6 6 6 6 6 6 6 6 6 6 6 6 6 6 6 6 6 5 5 4 4 4 4
5 5 5 4 4 4 4 4 4 4 5 5 6 6 6 6 6 5 5 6 6 6 5 5 5 6 5 5 6 6 6 6 6 6 6 5 5 5 4 4 4 4
5 5 5 4 4 4 4 4 4 4 5 5 5 5 5 5 5 5 5 5 5 5 5 5 5 5 5 5 6 6 6 6 6 6 5 5 5 4 4 4 4 4
5 5 4 4 4 4 4 4 4 4 5 5 5 5 5 5 5 5 5 5 5 5 5 5 5 5 5 5 6 6 6 6 6 5 5 5 5 4 4 4 4 4
5 4 4 4 4 4 4 4 4 4 4 5 5 5 5 5 5 5 5 5 5 5 5 5 5 5 5 5 6 6 6 6 5 5 5 5 4 4 4 4 4 3
5 4 4 4 4 4 4 4 4 4 4 5 5 5 5 5 5 5 5 5 5 5 5 5 5 5 5 5 5 6 6 5 5 5 5 4 4 4 4 4 3 3
5 4 4 4 4 4 4 4 4 4 5 5 5 5 5 5 5 5 5 5 5 5 5 5 5 5 5 5 5 5 5 5 5 5 5 4 4 4 4 3 3 3
5 4 4 4 4 4 4 4 4 4 5 5 5 5 5 4 4 4 4 4 4 5 5 5 5 5 5 5 5 5 5 5 5 4 4 4 4 4 3 3 3 3
5 4 4 4 4 4 4 4 4 4 4 4 5 4 4 4 4 4 4 4 4 4 5 5 5 5 5 5 5 5 5 5 4 4 4 4 4 3 3 3 3 3
4 4 4 4 4 4 4 4 4 4 4 4 4 4 4 4 4 4 4 4 4 4 4 4 4 5 5 5 5 5 4 4 4 4 4 4 3 3 3 3 3 3
4 4 4 4 4 4 4 4 4 4 4 4 4 4 4 4 4 4 4 4 4 4 4 4 4 4 4 5 5 4 4 4 4 3 3 3 3 3 3 3 3 3
4 4 4 4 4 4 4 4 4 4 4 4 4 5 4 4 4 4 4 4 4 4 4 4 4 4 4 4 4 4 4 4 3 3 3 3 3 3 2 2 2 2
4 4 4 4 3 3 4 4 3 3 4 4 4 4 4 4 4 4 4 4 4 4 4 4 4 4 4 4 4 4 3 3 3 3 3 3 3 2 2 2 2 2
4 4 4 4 4 4 4 3 3 4 4 4 4 4 4 4 4 4 4 4 4 4 4 4 4 4 4 4 4 3 3 3 3 3 2 2 2 2 2 2 2 2
4 4 4 4 4 4 4 3 3 4 4 4 4 4 4 4 4 4 4 4 4 4 3 3 3 3 3 3 3 3 3 3 2 2 2 2 2 2 2 2 1 1
4 4 4 4 4 4 4 3 3 3 4 4 4 4 4 4 4 4 4 4 3 3 3 3 3 3 3 3 3 2 2 2 2 2 2 2 2 2 1 1 1 1
4 4 4 4 4 4 3 3 3 3 3 3 4 4 4 4 4 4 3 3 3 3 3 3 3 3 3 2 2 2 2 2 2 2 2 2 1 1 1 1 1 1
3 3 3 3 3 3 3 3 3 3 3 3 3 3 3 3 3 3 3 3 3 3 3 2 2 2 2 2 2 2 2 2 2 2 2 1 1 1 1 1 1 0
Height
3125 3126 3128 3129 3130 3132 3133 3135 3137 3139 3141 3143 3144 3145 3146 3147 3147 3147 3148 3148 3148 3148 3147 3146 3146 3145 3145 3144 3143 3142 3141 3140 3139 3137 3136 3135 3134 3132 3131 3129 3127 3125
3124 3125 3126 3127 3129 3130 3132 3134 3136 3138 3140 3142 3143 3144 3145 3146 3146 3146 3147 3147 3147 3147 3147 3146 3145 3144 3144 3143 3142 3141 3140 3139 3138 3137 3136 3134 3133 3131 3129 3127 3126 3124
3123 3124 3125 3126 3128 3129 3131 3133 3135 3137 3139 3141 3142 3143 3144 3145 3145 3145 3146 3146 3146 3146 3146 3145 3144 3143 3143 3142 3141 3140 3139 3138 3137 3136 3135 3133 3131 3129 3128 3126 3124 3122
3122 3123 3124 3125 3127 3129 3131 3133 3134 3136 3138 3140 3141 3142 3143 3144 3144 3144 3145 3145 3145 3145 3144 3143 3143 3142 3142 3141 3140 3139 3139 3138 3136 3135 3134 3132 3130 3128 3126 3124 3122 3120
3121 3122 3123 3124 3126 3128 3130 3132 3134 3136 3137 3139 3140 3141 3142 3143 3143 3144 3144 3144 3144 3143 3143 3142 3142 3141 3140 3140 3139 3138 3137 3136 3135 3134 3132 3130 3128 3126 3124 3122 3120 3118
3120 3121 3123 3124 3125 3127 3129 3131 3133 3135 3137 3138 3139 3140 3141 3141 3142 3142 3143 3143 3142 3142 3142 3141 3141 3140 3139 3139 3138 3137 3136 3135 3134 3132 3130 3128 3127 3125 3122 3120 3118 3117
3119 3120 3122 3123 3125 3126 3128 3130 3132 3134 3135 3137 3138 3139 3140 3140 3141 3141 3141 3141 3141 3141 3141 3140 3139 3139 3138 3138 3137 3136 3135 3134 3132 3131 3129 3127 3125 3123 3121 3119 3117 3115
3118 3119 3121 3122 3124 3125 3127 3129 3131 3133 3134 3136 3137 3138 3139 3139 3140 3140 3140 3140 3140 3140 3140 3139 3138 3138 3137 3137 3136 3135 3134 3132 3131 3129 3127 3126 3124 3122 3120 3118 3116 3114
3117 3119 3120 3121 3123 3125 3126 3128 3130 3131 3133 3135 3136 3137 3137 3138 3138 3139 3139 3138 3139 3139 3138 3138 3137 3137 3136 3136 3135 3134 3132 3131 3130 3128 3126 3125 3123 3121 3119 3116 3114 3112
3116 3118 3119 3120 3122 3123 3125 3127 3128 3130 3132 3134 3135 3136 3136 3137 3137 3137 3137 3137 3137 3137 3137 3136 3136 3136 3135 3135 3134 3132 3131 3130 3128 3127 3125 3124 3122 3120 3117 3115 3113 3111
3115 3116 3118 3119 3121 3122 3123 3125 3127 3129 3131 3132 3133 3134 3135 3135 3135 3135 3136 3136 3136 3136 3136 3135 3135 3135 3134 3134 3132 3131 3130 3128 3127 3126 3124 3122 3120 3118 3116 3113 3111 3110
3113 3115 3117 3118 3119 3121 3122 3124 3126 3128 3130 3131 3132 3132 3133 3133 3134 3134 3134 3134 3134 3134 3134 3134 3134 3134 3133 3132 3131 3130 3128 3127 3126 3124 3123 3120 3118 3116 3114 3112 3110 3109
3112 3114 3115 3116 3118 3119 3121 3123 3125 3127 3128 3129 3130 3131 3131 3131 3132 3132 3132 3133 3133 3133 3133 3133 3132 3132 3132 3131 3130 3128 3127 3126 3125 3123 3121 3119 3117 3115 3113 3111 3110 3108
3111 3112 3114 3115 3116 3118 3120 3122 3124 3125 3126 3128 3128 3129 3129 3130 3130 3130 3130 3131 3131 3131 3131 3131 3131 3131 3130 3129 3128 3127 3126 3125 3123 3122 3120 3118 3115 3114 3112 3110 3109 3107
3110 3111 3112 3113 3115 3117 3119 3121 3122 3124 3125 3126 3126 3127 3128 3128 3128 3128 3129 3129 3129 3129 3129 3129 3129 3129 3129 3128 3127 3126 3125 3123 3122 3120 3118 3116 3115 3113 3111 3109 3108 3107
3108 3109 3111 3112 3113 3115 3117 3119 3121 3122 3123 3123 3124 3125 3126 3126 3126 3127 3127 3127 3127 3127 3128 3128 3128 3128 3127 3127 3126 3125 3123 3122 3120 3118 3117 3115 3114 3112 3110 3108 3107 3106
3107 3108 3109 3110 3112 3114 3116 3117 3119 3120 3121 3121 3122 3123 3124 3124 3124 3125 3125 3125 3125 3126 3126 3126 3126 3126 3126 3125 3124 3123 3121 3120 3118 3117 3115 3114 3113 3111 3109 3108 3107 3105
3105 3106 3107 3108 3110 3112 3114 3116 3117 3118 3119 3120 3121 3121 3122 3122 3122 3123 3123 3124 3124 3124 3124 3124 3125 3124 3124 3123 3122 3121 3120 3118 3117 3115 3114 3113 3111 3110 3109 3107 3106 3104
3103 3104 3105 3107 3109 3111 3113 3114 3116 3117 3118 3118 3119 3119 3120 3120 3121 3121 3122 3122 3122 3122 3122 3123 3123 3122 3122 3122 3121 3119 3118 3117 3115 3114 3113 3111 3110 3109 3108 3106 3105 3103
3100 3101 3103 3105 3107 3109 3111 3113 3114 3115 3116 3117 3117 3118 3118 3118 3119 3119 3120 3120 3121 3121 3121 3121 3121 3121 3120 3120 3119 3118 3116 3115 3114 3113 3111 3110 3109 3108 3107 3105 3104 3102
3098 3100 3101 3103 3106 3108 3109 3111 3112 3113 3114 3115 3115 3116 3116 3116 3117 3117 3118 3118 3119 3119 3119 3119 3119 3119 3118 3118 3117 3116 3115 3114 3112 3111 3110 3109 3108 3106 3105 3104 3103 3101
3096 3098 3100 3102 3104 3105 3107 3108 3110 3111 3112 3113 3113 3114 3114 3115 3115 3115 3116 3117 3117 3118 3118 3118 3117 3117 3116 3116 3115 3114 3113 3112 3111 3110 3109 3107 3106 3105 3104 3103 3102 3101
3094 3096 3098 3099 3101 3103 3104 3106 3107 3108 3109 3110 3111 3111 3112 3112 3113 3114 3114 3115 3116 3116 3116 3116 3115 3115 3114 3114 3114 3113 3112 3111 3110 3109 3107 3106 3105 3104 3103 3102 3102 3101
3092 3093 3095 3097 3098 3100 3101 3103 3105 3106 3107 3108 3108 3109 3110 3110 3111 3112 3113 3113 3114 3114 3114 3114 3113 3113 3113 3113 3113 3112 3111 3110 3109 3107 3106 3105 3104 3103 3103 3102 3101 3101
3088 3090 3092 3093 3095 3097 3098 3099 3102 3103 3105 3105 3105 3106 3107 3108 3109 3110 3111 3112 3112 3112 3112 3112 3112 3111 3111 3112 3111 3110 3109 3108 3107 3106 3105 3104 3103 3103 3102 3102 3101 3100
3085 3087 3089 3090 3092 3094 3094 3096 3099 3101 3102 3103 3104 3105 3106 3106 3107 3108 3109 3110 3110 3111 3111 3111 3110 3110 3110 3110 3110 3109 3108 3107 3106 3105 3104 3103 3103 3103 3102 3102 3101 3100
Wind_Speed
20 19 19 21 22 22 23 22 20 18 15 15 15 12 8 7 6 4 5 5 6 5 5 5 6 7 8 8 10 11 12 14 15 16 17 18 18 19 20 20 21 21
20 20 20 21 23 24 24 23 20 18 16 16 16 13 9 8 6 4 5 6 6 6 6 5 6 7 8 9 10 11 13 14 15 16 17 18 19 19 20 21 21 21
20 20 20 22 23 24 24 22 20 19 18 18 17 13 10 8 6 5 5 6 7 7 6 6 6 7 8 8 10 11 13 15 16 17 18 18 19 20 20 21 21 21
20 20 20 22 24 24 23 21 20 19 19 19 16 12 10 9 7 6 6 6 7 7 7 6 6 7 7 8 9 11 13 15 16 17 19 19 20 20 20 20 21 21
20 20 21 21 23 24 23 21 19 19 20 19 16 13 10 9 8 7 6 7 7 8 7 6 6 6 7 8 9 11 14 16 17 19 20 20 21 21 21 21 21 22
21 20 20 21 22 23 24 22 20 19 20 19 17 13 11 10 9 7 7 7 8 8 8 7 6 6 6 8 9 11 14 16 18 20 21 22 22 22 22 22 22 22
21 20 21 21 22 24 24 22 21 21 20 20 18 13 11 10 9 7 7 8 9 9 8 7 6 6 6 7 9 12 14 17 19 20 22 23 23 23 22 23 23 23
21 20 20 21 23 23 23 22 22 22 21 20 16 12 11 10 8 8 8 9 10 10 8 7 7 6 6 8 9 12 14 17 19 21 23 24 24 23 23 23 23 22
20 20 20 21 23 23 22 22 22 23 22 18 14 12 11 10 9 9 10 10 10 10 9 8 7 6 7 8 10 12 14 17 19 21 23 23 23 22 22 22 22 21
20 20 20 21 22 22 22 22 22 22 19 15 13 13 12 10 10 11 11 11 10 10 9 9 8 7 7 8 10 12 15 17 20 21 23 23 22 22 22 22 21 20
21 21 20 21 22 22 21 22 22 20 16 13 13 13 11 10 11 12 11 11 10 10 10 10 9 8 8 9 10 12 15 18 20 21 22 22 22 21 21 21 21 20
22 23 22 22 22 21 21 21 21 18 14 13 13 12 11 11 12 12 11 11 11 11 11 11 10 9 8 9 11 13 15 17 19 20 21 21 21 21 21 21 20 19
22 24 24 24 24 22 21 20 19 16 15 15 13 11 11 12 12 12 12 12 12 12 13 12 11 10 9 10 11 13 15 17 18 19 20 21 22 22 21 20 19 18
21 24 25 26 26 24 21 20 18 16 17 16 13 12 12 12 12 12 13 13 13 13 14 13 12 11 10 10 11 13 15 16 18 18 19 20 21 21 20 19 18 17
21 23 24 25 24 23 21 20 19 18 18 15 14 13 13 13 14 14 14 14 14 14 14 14 13 11 10 10 11 13 15 16 17 18 19 20 20 20 19 18 17 17
20 22 23 23 22 22 22 21 21 20 17 15 15 14 14 14 15 15 15 14 14 15 15 14 13 11 10 10 12 13 15 16 16 17 19 19 18 18 18 17 17 16
20 21 23 24 23 23 23 22 21 19 16 16 15 14 15 15 15 14 14 14 15 15 15 14 13 12 11 11 12 13 15 15 16 17 18 18 17 16 16 16 16 16
20 21 23 25 24 24 23 21 20 18 17 16 15 15 15 14 13 13 13 14 15 15 14 14 13 12 11 11 12 14 14 15 16 17 17 17 16 15 15 15 15 15
20 21 23 25 25 24 22 21 20 18 17 16 15 14 13 12 11 12 13 14 14 14 14 14 14 13 12 12 13 13 14 14 15 16 16 16 15 14 14 14 15 15
21 21 22 24 25 24 23 21 20 18 16 14 13 12 11 11 11 12 13 14 14 14 14 14 14 13 12 12 13 13 13 14 15 16 15 14 14 14 14 14 13 13
23 22 22 23 24 23 22 21 19 16 14 13 12 12 11 11 12 13 13 14 13 13 14 14 13 13 12 13 13 13 14 14 15 14 13 13 14 14 13 12 11 11
25 24 23 22 22 21 21 19 17 15 15 14 13 12 12 13 13 13 12 13 13 13 13 13 13 13 13 13 13 13 14 14 13 13 12 13 13 12 12 11 10 9
26 25 23 22 21 20 19 18 18 17 17 16 14 14 13 13 12 12 12 13 13 13 12 12 12 13 13 13 12 13 13 13 12 11 12 12 11 10 10 9 9 9
28 26 24 23 21 20 19 19 20 19 18 16 15 14 14 12 11 11 12 13 13 12 12 12 12 13 13 12 12 12 12 11 10 10 10 10 8 8 8 8 8 9
28 27 27 26 24 22 21 20 20 19 18 16 15 14 13 12 12 12 13 13 12 11 11 11 12 13 12 12 11 11 11 10 10 9 8 7 7 7 6 7 7 9
24 24 27 28 26 25 23 22 21 20 18 16 15 14 13 13 12 13 13 12 11 11 11 11 11 12 12 11 11 11 10 9 9 8 6 5 5 5 6 6 6 8
Wind_Direction
205 209 210 205 201 200 201 203 201 199 200 205 210 215 231 247 250 262 280 281 284 302 327 345 356 355 351 348 348 347 344 341 339 336 332 328 326 325 324 325 325 326
205 208 209 205 201 199 199 199 198 198 200 205 211 217 233 249 252 265 282 284 285 297 315 335 350 351 348 348 349 348 345 344 341 336 332 329 326 325 325 325 325 326
204 207 206 204 203 200 198 197 197 198 202 208 212 217 234 246 250 264 281 287 287 290 302 322 339 343 343 346 347 347 346 344 341 337 334 331 329 328 326 326 326 327
204 204 204 203 203 200 197 197 199 201 205 210 212 218 233 242 246 259 276 287 286 283 290 309 329 335 338 343 344 346 347 345 342 339 337 334 332 330 328 326 326 327
204 204 204 204 203 200 197 196 199 203 207 210 212 220 231 235 240 255 275 283 278 274 281 298 316 324 331 338 341 344 347 346 344 342 340 337 334 331 328 327 328 329
205 204 204 204 202 201 199 199 201 204 208 210 213 221 229 230 236 253 271 274 271 273 278 287 303 314 323 331 337 343 346 346 345 342 340 338 334 331 330 330 331 332
207 206 205 203 200 201 202 202 206 209 210 210 214 223 227 229 239 254 266 268 270 276 276 279 294 307 313 323 332 340 345 346 344 342 340 338 335 332 331 331 333 334
208 207 206 203 200 202 204 206 212 214 212 212 218 228 230 234 246 255 259 263 270 274 271 275 287 296 304 316 328 337 344 345 343 342 340 338 335 332 331 332 334 334
207 204 205 204 202 204 207 210 215 215 212 214 224 232 235 241 250 253 256 262 269 271 268 271 278 283 295 310 324 335 340 341 341 341 339 336 333 331 331 333 335 335
204 202 201 203 205 208 211 214 216 213 211 216 227 231 236 246 252 254 260 266 270 269 265 265 268 274 289 304 318 330 336 339 340 339 337 334 332 331 333 335 336 337
204 203 202 203 205 210 214 216 214 210 212 224 230 232 239 249 253 257 263 267 268 266 261 259 260 266 281 298 313 326 334 337 338 337 335 332 332 333 335 337 338 339
208 207 207 206 207 210 214 213 210 210 220 232 233 236 243 247 251 257 262 264 264 262 258 256 256 260 274 292 311 325 332 334 334 335 333 332 333 335 336 338 340 341
212 211 211 211 211 213 213 210 210 216 226 232 234 239 245 249 255 260 260 260 259 256 254 253 252 256 271 291 311 324 329 330 331 333 333 333 335 336 336 337 339 340
215 213 213 215 215 216 215 212 213 219 226 230 235 242 249 255 258 258 256 255 254 251 250 250 248 254 271 293 310 320 324 327 329 332 333 334 335 334 333 335 338 340
217 214 214 216 216 215 214 212 213 218 224 231 240 248 254 257 257 256 253 252 250 249 249 249 248 255 273 292 306 315 321 325 329 331 333 333 333 332 333 336 339 341
219 217 215 215 214 211 210 211 214 217 225 238 249 254 257 257 255 252 249 247 248 249 250 249 250 258 273 289 303 312 319 324 329 331 331 331 332 333 335 336 339 341
219 219 218 216 212 209 210 212 216 222 233 246 253 256 258 255 250 245 242 244 247 248 250 250 252 260 274 289 302 311 318 324 327 328 328 330 333 336 337 336 338 340
219 222 222 219 214 211 212 217 224 233 242 248 252 255 253 246 238 236 239 243 246 248 250 251 254 263 275 290 302 310 317 323 325 327 329 331 334 338 338 336 337 339
219 223 222 219 215 214 218 227 235 238 241 246 250 248 240 230 228 233 239 243 246 249 251 252 258 267 279 292 302 309 316 321 325 328 330 332 335 339 339 337 338 341
219 222 221 219 218 221 226 232 234 235 238 242 240 233 225 223 227 233 239 244 247 250 253 255 261 270 282 294 302 309 316 321 326 328 330 333 336 339 340 341 345 350
221 222 222 221 221 224 227 229 230 232 232 227 223 222 220 223 229 234 241 246 249 252 255 258 265 274 285 295 302 309 317 322 326 328 331 335 337 339 343 350 357 0
222 224 225 224 224 225 226 226 227 227 220 213 214 219 221 225 231 236 244 249 251 253 256 260 268 278 287 296 304 311 317 322 324 327 332 336 338 342 350 359 3 5
222 225 226 226 226 226 226 226 225 220 212 208 212 218 222 227 231 238 245 249 250 253 257 263 273 282 289 297 304 311 316 319 322 326 332 336 341 351 1 3 0 2
223 225 226 226 226 226 226 226 224 217 209 208 213 218 223 226 230 238 244 246 250 255 260 268 278 285 290 297 303 309 313 315 319 326 333 340 352 4 5 359 356 0
225 225 224 223 222 224 224 223 220 215 210 211 216 220 224 227 230 237 242 246 251 255 260 270 279 284 288 295 301 305 308 312 320 329 336 349 5 8 357 350 356 4
232 228 226 224 222 223 220 215 213 213 212 214 219 222 226 230 233 237 242 247 251 254 261 271 277 280 285 292 298 301 305 312 321 329 340 358 6 354 342 344 359 9